Home   Weather   Tübingen   Past weeks

Flag for Germany Past Weather in Tübingen, Baden-Württemberg, Germany — Yesterday and Last 2 Weeks

46 °F


Feels Like: 46 °F
Forecast: 34 / 56 °F
Wind: 2 mph from Northwest

Location: Stuttgart-Echterdingen

Current Time: Oct 28, 2016 at 11:56:17 PM

Latest Report: Oct 28, 2016 at 11:20 PM

Visibility: 10 mi

Pressure: 30.57 "Hg

Humidity: 87%

Dew Point: 43 °F

Location of TübingenLocation

Past Weather in Tübingen — Graph


Tübingen Temperature Yesterday

Maximum temperature yesterday: 57 °F (at 3:20 PM)
Minimum temperature yesterday: 41 °F (at 5:50 AM)
Average temperature yesterday: 48 °F

High & Low Weather Summary for the Past Weeks

High68 °F (Oct 16, 3:50 PM)100% (Oct 14, 3:20 AM)30.57 "Hg (Oct 14, 3:20 AM)
Low32 °F (Oct 23, 6:20 AM)53% (Oct 16, 4:50 PM)29.65 "Hg (Oct 14, 5:50 PM)
Average49 °F86%30.10 "Hg
* Reported Oct 13 10:20 PM — Oct 28 10:50 PM, Tübingen, Weather by CustomWeather, © 2016

Note: Actual official high and low records may vary slightly from our data, if they occured in-between our weather recording intervals... More about our weather records


Tübingen Weather History for the Previous 24 Hours

Scroll right to see more
Time TempWeatherWind HumidityBarometerVisibility
10:50 PM
Fri, Oct 28
46 °FPassing clouds.5 mph93%30.57 "HgN/A
10:20 PM46 °FClear.1 mph87%30.54 "Hg10 mi
9:50 PM46 °FPassing clouds.3 mph93%30.57 "HgN/A
9:20 PM46 °FClear.6 mph93%30.54 "Hg10 mi
8:50 PM48 °FClear.2 mph87%30.54 "Hg10 mi
8:20 PM48 °FClear.1 mph87%30.57 "Hg10 mi
7:50 PM48 °FClear.6 mph87%30.57 "Hg10 mi
7:20 PM50 °FClear.3 mph82%30.54 "Hg10 mi
6:50 PM50 °FPassing clouds.5 mph82%30.54 "HgN/A
6:20 PM52 °FClear.3 mph77%30.54 "Hg10 mi
5:50 PM54 °FSunny.No wind72%30.54 "Hg10 mi
5:20 PM54 °FScattered clouds.3 mph72%30.54 "HgN/A
4:50 PM55 °FScattered clouds.6 mph67%30.54 "HgN/A
4:20 PM55 °FScattered clouds.6 mph67%30.54 "HgN/A
3:50 PM55 °FScattered clouds.5 mph67%30.54 "HgN/A
3:20 PM54 °FScattered clouds.6 mph77%30.54 "HgN/A
2:50 PM55 °FScattered clouds.5 mph72%30.54 "HgN/A
2:20 PM54 °FScattered clouds.3 mph77%30.54 "HgN/A
1:50 PM54 °FPartly sunny.6 mph77%30.54 "HgN/A
1:20 PM54 °FPartly sunny.7 mph77%30.54 "HgN/A
12:50 PM54 °FPartly sunny.5 mph77%30.54 "HgN/A
12:20 PM54 °FSunny.2 mph77%30.54 "Hg10 mi
11:50 AM50 °FSunny.1 mph82%30.54 "Hg10 mi
11:20 AM46 °FClear.3 mph93%30.54 "Hg6 mi
10:50 AM45 °FLight fog.3 mph93%30.54 "Hg5 mi
10:20 AM43 °FLight fog.2 mph93%30.54 "Hg4 mi
9:50 AM39 °FLight fog.2 mph100%30.54 "Hg4 mi
9:20 AM36 °FLight fog.1 mph100%30.54 "Hg4 mi
8:50 AM36 °FFog.1 mph100%30.54 "Hg3 mi
8:20 AM34 °FFog.2 mph100%30.54 "Hg3 mi
7:50 AM36 °FPassing clouds.1 mph93%30.51 "Hg3 mi
7:20 AM36 °FLight fog.No wind100%30.51 "Hg2 mi
6:50 AM34 °FPassing clouds.No wind100%30.54 "Hg0 mi
6:20 AM34 °FPassing clouds.2 mph100%30.54 "Hg1 mi
5:50 AM36 °FFog.2 mph93%30.51 "Hg4 mi
5:20 AM36 °FFog.2 mph100%30.51 "Hg3 mi
4:50 AM36 °FPassing clouds.2 mph100%30.51 "Hg1 mi
4:20 AM36 °FPassing clouds.1 mph100%30.51 "Hg0 mi
3:50 AM37 °FSleet. Overcast.2 mph100%30.51 "Hg1 mi
3:20 AM37 °FPassing clouds.No wind100%30.51 "Hg1 mi
2:50 AM39 °FPassing clouds.1 mph93%30.54 "Hg1 mi
2:20 AM39 °FPassing clouds.2 mph93%30.54 "Hg0 mi
1:50 AM39 °FSleet. Overcast.3 mph93%30.54 "Hg1 mi
1:20 AM39 °FFog.2 mph100%30.54 "Hg3 mi
12:50 AM41 °FFog.No wind93%30.54 "Hg3 mi
12:20 AM41 °FClear.1 mph100%30.54 "Hg4 mi
11:50 PM
Thu, Oct 27
43 °FClear.1 mph93%30.54 "Hg4 mi
11:20 PM43 °FClear.No wind93%30.54 "Hg5 mi
Weather by CustomWeather, © 2016

See weather overviewHow to use our weather pages